AIC816 VABB-VIDP

Flight info

Callsign AIC816
Flight time N/A
Altitude 39000
Route ANOLI2A ISRIS Q1 UKASO UKASO7E
Aircraft B77W/H-SDE1E2E3FGHIJ2J3J4J5M1RWXY/LB1D1

Departure

Time 2026-05-05 01:26
Airport Chhatrapati Shivaji Maharaj International Airport (VABB)

Arrival

Time N/A
Airport Indira Gandhi International Airport (VIDP)
Time Latitude Longitude Altitude Speed Heading
2026-05-05 01:03 19.09449 72.87339 39 ft 0 kts 316°
2026-05-05 01:16 19.09444 72.87344 38 ft 3 kts 316°
2026-05-05 01:16 19.09431 72.87357 37 ft 3 kts 300°
2026-05-05 01:16 19.09425 72.87376 37 ft 3 kts 282°
2026-05-05 01:16 19.09421 72.87388 36 ft 3 kts 296°
2026-05-05 01:17 19.09416 72.87408 35 ft 3 kts 260°
2026-05-05 01:17 19.09422 72.87426 35 ft 0 kts 226°
2026-05-05 01:19 19.09418 72.87422 35 ft 0 kts 215°
2026-05-05 01:20 19.09411 72.87417 36 ft 5 kts 215°
2026-05-05 01:20 19.09375 72.87390 39 ft 7 kts 213°
2026-05-05 01:20 19.09329 72.87372 39 ft 7 kts 193°
2026-05-05 01:20 19.09272 72.87353 39 ft 10 kts 218°
2026-05-05 01:21 19.09228 72.87292 39 ft 11 kts 223°
2026-05-05 01:21 19.09158 72.87269 39 ft 11 kts 184°
2026-05-05 01:21 19.09084 72.87276 39 ft 11 kts 150°
2026-05-05 01:21 19.09054 72.87349 40 ft 11 kts 98°
2026-05-05 01:22 19.09053 72.87431 40 ft 11 kts 90°
2026-05-05 01:22 19.09053 72.87513 41 ft 11 kts 89°
2026-05-05 01:22 19.09054 72.87595 41 ft 11 kts 89°
2026-05-05 01:22 19.09055 72.87677 41 ft 11 kts 89°
2026-05-05 01:23 19.09056 72.87759 42 ft 11 kts 89°
2026-05-05 01:23 19.09058 72.87841 42 ft 11 kts 89°
2026-05-05 01:23 19.09061 72.87923 43 ft 11 kts 87°
2026-05-05 01:23 19.09056 72.88005 43 ft 11 kts 106°
2026-05-05 01:24 19.08992 72.88047 43 ft 12 kts 177°
2026-05-05 01:24 19.08925 72.87998 42 ft 13 kts 234°
2026-05-05 01:24 19.08892 72.87917 42 ft 5 kts 258°
2026-05-05 01:24 19.08891 72.87909 42 ft 0 kts 262°
2026-05-05 01:25 19.08885 72.87848 42 ft 26 kts 265°
2026-05-05 01:25 19.08876 72.87197 40 ft 152 kts 269°
2026-05-05 01:25 19.08865 72.85721 566 ft 232 kts 269°
2026-05-05 01:26 19.08849 72.83973 2470 ft 233 kts 269°
2026-05-05 01:26 19.08842 72.82298 4153 ft 230 kts 269°
2026-05-05 01:26 19.08819 72.80543 4972 ft 247 kts 269°
2026-05-05 01:26 19.08769 72.78680 5892 ft 259 kts 268°
2026-05-05 01:27 19.08733 72.76747 6892 ft 265 kts 269°
2026-05-05 01:27 19.08715 72.74770 7850 ft 271 kts 271°
2026-05-05 01:27 19.09151 72.72813 8703 ft 280 kts 300°
2026-05-05 01:27 19.10508 72.71348 9522 ft 285 kts 330°
2026-05-05 01:28 19.12398 72.70746 9974 ft 289 kts 357°
2026-05-05 01:28 19.14349 72.71084 9922 ft 291 kts 25°
2026-05-05 01:28 19.15928 72.72367 10000 ft 285 kts 45°
2026-05-05 01:28 19.17435 72.73747 10026 ft 291 kts 32°
2026-05-05 01:29 19.19297 72.74580 10045 ft 292 kts 11°
2026-05-05 01:29 19.21317 72.74710 9989 ft 291 kts 353°
2026-05-05 01:29 19.23288 72.74406 10035 ft 285 kts 353°
2026-05-05 01:29 19.25267 72.74216 10022 ft 285 kts 355°
2026-05-05 01:30 19.27250 72.74089 10023 ft 287 kts 356°
2026-05-05 01:30 19.29250 72.73977 9977 ft 289 kts 356°
2026-05-05 01:30 19.31229 72.73925 10013 ft 286 kts
2026-05-05 01:30 19.33205 72.74192 9972 ft 288 kts
2026-05-05 01:31 19.35186 72.74544 9993 ft 289 kts
2026-05-05 01:31 19.37160 72.74914 10031 ft 288 kts
2026-05-05 01:31 19.39148 72.75265 10010 ft 291 kts
2026-05-05 01:31 19.41149 72.75595 9996 ft 292 kts
2026-05-05 01:32 19.43160 72.75916 10008 ft 292 kts
2026-05-05 01:32 19.45170 72.76232 9999 ft 292 kts
2026-05-05 01:32 19.47183 72.76545 9999 ft 292 kts
2026-05-05 01:32 19.49164 72.76852 9999 ft 291 kts
2026-05-05 01:33 19.51167 72.77162 9998 ft 291 kts
2026-05-05 01:33 19.53164 72.77470 9999 ft 290 kts
2026-05-05 01:33 19.55155 72.77777 9999 ft 289 kts
2026-05-05 01:33 19.57144 72.78083 9999 ft 288 kts
2026-05-05 01:34 19.59138 72.78390 10042 ft 294 kts
2026-05-05 01:34 19.61252 72.78715 10340 ft 323 kts
2026-05-05 01:34 19.63595 72.79075 10604 ft 357 kts
2026-05-05 01:34 19.66113 72.79463 11306 ft 373 kts
2026-05-05 01:35 19.68676 72.79858 12283 ft 380 kts
2026-05-05 01:35 19.71308 72.80264 13375 ft 385 kts
2026-05-05 01:35 19.73972 72.80675 14450 ft 389 kts
2026-05-05 01:35 19.76675 72.81092 15434 ft 396 kts
2026-05-05 01:36 19.79420 72.81516 16387 ft 402 kts
2026-05-05 01:36 19.82204 72.81946 17314 ft 407 kts
2026-05-05 01:36 19.85029 72.82382 18227 ft 413 kts
2026-05-05 01:36 19.87892 72.82824 19106 ft 419 kts
2026-05-05 01:37 19.90793 72.83273 19958 ft 424 kts
2026-05-05 01:37 19.93693 72.83721 20763 ft 429 kts
2026-05-05 01:37 19.96666 72.84181 21566 ft 434 kts
2026-05-05 01:37 19.99672 72.84646 22328 ft 440 kts
2026-05-05 01:38 20.02716 72.85117 23059 ft 445 kts
2026-05-05 01:38 20.05795 72.85594 23771 ft 449 kts
2026-05-05 01:38 20.08903 72.86073 24464 ft 454 kts
2026-05-05 01:38 20.12047 72.86510 25129 ft 458 kts
2026-05-05 01:39 20.15232 72.86914 25742 ft 463 kts
2026-05-05 01:39 20.18449 72.87307 26334 ft 467 kts
2026-05-05 01:39 20.21645 72.87698 26910 ft 471 kts
2026-05-05 01:39 20.24914 72.88103 27461 ft 475 kts
2026-05-05 01:40 20.28208 72.88516 27997 ft 479 kts
2026-05-05 01:40 20.31530 72.88937 28494 ft 482 kts
2026-05-05 01:40 20.34880 72.89364 28986 ft 486 kts
2026-05-05 01:40 20.38247 72.89794 29415 ft 489 kts
2026-05-05 01:41 20.41647 72.90229 29819 ft 492 kts
2026-05-05 01:41 20.45009 72.90659 30223 ft 495 kts
2026-05-05 01:41 20.48426 72.91096 30729 ft 494 kts
2026-05-05 01:41 20.51830 72.91531 31284 ft 492 kts
2026-05-05 01:42 20.55223 72.91965 31856 ft 490 kts
2026-05-05 01:42 20.58610 72.92398 32334 ft 489 kts
2026-05-05 01:42 20.61980 72.92829 32804 ft 488 kts
2026-05-05 01:42 20.65357 72.93261 33271 ft 487 kts
2026-05-05 01:43 20.68666 72.93685 33716 ft 486 kts
2026-05-05 01:43 20.72025 72.94116 34159 ft 485 kts
2026-05-05 01:43 20.75379 72.94545 34590 ft 484 kts
2026-05-05 01:43 20.78736 72.94853 35003 ft 483 kts
2026-05-05 01:44 20.82089 72.94993 35390 ft 483 kts
2026-05-05 01:44 20.85441 72.95068 35766 ft 482 kts
2026-05-05 01:44 20.88794 72.95138 36145 ft 481 kts
2026-05-05 01:44 20.92131 72.95225 36485 ft 481 kts
2026-05-05 01:45 20.95436 72.95332 36787 ft 481 kts
2026-05-05 01:45 20.98793 72.95454 36937 ft 485 kts
2026-05-05 01:45 21.05560 72.95715 36983 ft 486 kts
2026-05-05 01:46 21.12262 72.95970 36994 ft 479 kts
2026-05-05 01:46 21.18841 72.96697 37005 ft 479 kts 11°
2026-05-05 01:47 21.25230 72.98704 37009 ft 479 kts 19°
2026-05-05 01:47 21.31487 73.01167 37006 ft 480 kts 20°
2026-05-05 01:48 21.37771 73.03644 37003 ft 481 kts 20°
2026-05-05 01:48 21.44035 73.06080 37002 ft 482 kts 19°
2026-05-05 01:49 21.50354 73.08521 37002 ft 483 kts 19°
2026-05-05 01:49 21.56682 73.10965 37001 ft 483 kts 19°
2026-05-05 01:50 21.63007 73.13412 37001 ft 483 kts 19°
2026-05-05 01:50 21.69332 73.15862 37001 ft 483 kts 19°
2026-05-05 01:51 21.75620 73.18300 37001 ft 483 kts 19°
2026-05-05 01:51 21.81939 73.20752 37001 ft 483 kts 19°
2026-05-05 01:52 21.88241 73.23201 37001 ft 482 kts 19°
2026-05-05 01:52 21.94554 73.25655 37001 ft 482 kts 19°
2026-05-05 01:53 22.00818 73.28093 37001 ft 482 kts 19°
2026-05-05 01:53 22.07118 73.30548 37001 ft 482 kts 19°
2026-05-05 01:54 22.13429 73.33008 37001 ft 482 kts 19°
2026-05-05 01:54 22.19729 73.35467 37001 ft 482 kts 19°
2026-05-05 01:55 22.25981 73.37910 37001 ft 482 kts 20°
2026-05-05 01:55 22.32294 73.40379 37001 ft 482 kts 20°
2026-05-05 01:56 22.38601 73.42847 37002 ft 482 kts 20°
2026-05-05 01:56 22.44908 73.45319 37001 ft 482 kts 20°
2026-05-05 01:57 22.51220 73.47794 37001 ft 483 kts 20°
2026-05-05 01:57 22.57486 73.50254 37002 ft 483 kts 20°
2026-05-05 01:58 22.63807 73.52738 37001 ft 483 kts 20°
2026-05-05 01:58 22.70110 73.55218 37001 ft 483 kts 20°
2026-05-05 01:59 22.76432 73.57708 37001 ft 483 kts 20°
2026-05-05 01:59 22.82696 73.60177 37001 ft 483 kts 20°
2026-05-05 02:00 22.89020 73.62674 37001 ft 483 kts 20°
2026-05-05 02:00 22.95320 73.65165 37001 ft 483 kts 20°
2026-05-05 02:01 23.01652 73.67672 37001 ft 483 kts 20°
2026-05-05 02:01 23.07955 73.70169 37002 ft 483 kts 20°
2026-05-05 02:02 23.14225 73.72656 37000 ft 483 kts 20°
2026-05-05 02:02 23.20543 73.75164 37002 ft 483 kts 20°
2026-05-05 02:03 23.26848 73.77670 37001 ft 483 kts 20°
2026-05-05 02:03 23.33116 73.80163 37000 ft 483 kts 20°
2026-05-05 02:04 23.39423 73.82675 37001 ft 483 kts 20°
2026-05-05 02:04 23.45739 73.85193 37001 ft 483 kts 20°
2026-05-05 02:05 23.51994 73.87689 37002 ft 483 kts 20°
2026-05-05 02:05 23.58295 73.90206 37001 ft 483 kts 20°